Time,TemperatureF,DewpointF,PressureIn,WindDirection,WindDirectionDegrees,WindSpeedMPH,WindSpeedGustMPH,Humidity,HourlyPrecipIn,Conditions,Clouds,dailyrainin,SolarRadiationWatts/m^2,SoftwareType,DateUTC
2013-04-14 00:03:00,48.0,34.0,30.39,WNW,303,1.0,3.0,58,0.00,,,0.00,0.000000,,2013-04-14 04:03:00,
2013-04-14 00:33:00,45.0,35.0,30.39,ESE,108,1.0,5.0,67,0.00,,,0.00,0.000000,,2013-04-14 04:33:00,
2013-04-14 00:43:00,45.0,35.0,30.39,ESE,108,1.0,5.0,67,0.00,,,0.00,0.000000,,2013-04-14 04:43:00,
2013-04-14 00:53:00,45.0,35.0,30.39,ESE,108,1.0,5.0,67,0.00,,,0.00,0.000000,,2013-04-14 04:53:00,
2013-04-14 01:03:00,45.0,35.0,30.39,ESE,108,1.0,5.0,67,0.00,,,0.00,0.000000,,2013-04-14 05:03:00,
2013-04-14 01:32:00,44.0,36.0,30.40,SSE,162,1.0,2.0,72,0.00,,,0.00,0.000000,,2013-04-14 05:32:00,
2013-04-14 01:43:00,44.0,36.0,30.40,SSE,162,1.0,2.0,72,0.00,,,0.00,0.000000,,2013-04-14 05:43:00,
2013-04-14 01:53:00,44.0,36.0,30.40,SSE,162,1.0,2.0,72,0.00,,,0.00,0.000000,,2013-04-14 05:53:00,
2013-04-14 02:02:00,44.0,36.0,30.40,SSE,162,1.0,2.0,72,0.00,,,0.00,0.000000,,2013-04-14 06:02:00,
2013-04-14 02:32:00,43.0,35.0,30.41,North,8,2.0,4.0,74,0.00,,,0.00,0.000000,,2013-04-14 06:32:00,
2013-04-14 02:42:00,43.0,35.0,30.41,North,8,2.0,4.0,74,0.00,,,0.00,0.000000,,2013-04-14 06:42:00,
2013-04-14 02:53:00,43.0,35.0,30.41,North,8,2.0,4.0,74,0.00,,,0.00,0.000000,,2013-04-14 06:53:00,
2013-04-14 03:03:00,43.0,35.0,30.41,North,8,2.0,4.0,74,0.00,,,0.00,0.000000,,2013-04-14 07:03:00,
2013-04-14 03:33:00,42.0,37.0,30.40,SSW,199,1.0,3.0,81,0.00,,,0.00,0.000000,,2013-04-14 07:33:00,
2013-04-14 03:42:00,42.0,37.0,30.40,SSW,199,1.0,3.0,81,0.00,,,0.00,0.000000,,2013-04-14 07:42:00,
2013-04-14 03:52:00,42.0,37.0,30.40,SSW,199,1.0,3.0,81,0.00,,,0.00,0.000000,,2013-04-14 07:52:00,
2013-04-14 04:03:00,42.0,37.0,30.40,SSW,199,1.0,3.0,81,0.00,,,0.00,0.000000,,2013-04-14 08:03:00,
2013-04-14 04:33:00,40.0,36.0,30.39,North,352,1.0,3.0,86,0.00,,,0.00,0.000000,,2013-04-14 08:33:00,
2013-04-14 04:43:00,40.0,36.0,30.39,North,352,1.0,3.0,86,0.00,,,0.00,0.000000,,2013-04-14 08:43:00,
2013-04-14 04:52:00,40.0,36.0,30.39,North,352,1.0,3.0,86,0.00,,,0.00,0.000000,,2013-04-14 08:52:00,
2013-04-14 05:03:00,40.0,36.0,30.39,North,352,1.0,3.0,86,0.00,,,0.00,0.000000,,2013-04-14 09:03:00,
2013-04-14 05:33:00,40.0,37.0,30.40,SE,132,1.0,2.0,89,0.00,,,0.00,0.000000,,2013-04-14 09:33:00,
2013-04-14 05:43:00,40.0,37.0,30.40,SE,132,1.0,2.0,89,0.00,,,0.00,0.000000,,2013-04-14 09:43:00,
2013-04-14 05:54:00,40.0,37.0,30.40,SE,132,1.0,2.0,89,0.00,,,0.00,0.000000,,2013-04-14 09:54:00,
2013-04-14 06:03:00,40.0,37.0,30.40,SE,132,1.0,2.0,89,0.00,,,0.00,0.000000,,2013-04-14 10:03:00,
2013-04-14 06:33:00,38.0,34.0,30.39,ENE,62,2.0,4.0,87,0.00,,,0.00,0.000000,,2013-04-14 10:33:00,
2013-04-14 06:43:00,38.0,34.0,30.39,ENE,62,2.0,4.0,87,0.00,,,0.00,0.000000,,2013-04-14 10:43:00,
2013-04-14 06:53:00,38.0,34.0,30.39,ENE,62,2.0,4.0,87,0.00,,,0.00,0.000000,,2013-04-14 10:53:00,
2013-04-14 07:02:00,38.0,34.0,30.39,ENE,62,2.0,4.0,87,0.00,,,0.00,0.000000,,2013-04-14 11:02:00,
2013-04-14 07:33:00,39.0,36.0,30.41,SSE,155,1.0,3.0,90,0.00,,,0.00,0.000000,,2013-04-14 11:33:00,
2013-04-14 07:42:00,39.0,36.0,30.41,SSE,155,1.0,3.0,90,0.00,,,0.00,0.000000,,2013-04-14 11:42:00,
2013-04-14 07:53:00,39.0,36.0,30.41,SSE,155,1.0,3.0,90,0.00,,,0.00,0.000000,,2013-04-14 11:53:00,
2013-04-14 08:02:00,39.0,36.0,30.41,SSE,155,1.0,3.0,90,0.00,,,0.00,0.000000,,2013-04-14 12:02:00,
2013-04-14 08:32:00,42.0,38.0,30.42,East,100,1.0,2.0,85,0.00,,,0.00,75.000000,,2013-04-14 12:32:00,
2013-04-14 08:42:00,42.0,38.0,30.42,East,100,1.0,2.0,85,0.00,,,0.00,75.000000,,2013-04-14 12:42:00,
2013-04-14 08:52:00,42.0,38.0,30.42,East,100,1.0,2.0,85,0.00,,,0.00,75.000000,,2013-04-14 12:52:00,
2013-04-14 09:02:00,42.0,38.0,30.42,East,100,1.0,2.0,85,0.00,,,0.00,75.000000,,2013-04-14 13:02:00,
2013-04-14 09:33:00,52.0,41.0,30.42,South,171,1.0,3.0,66,0.00,,,0.00,312.000000,,2013-04-14 13:33:00,
2013-04-14 09:43:00,52.0,41.0,30.42,South,171,1.0,3.0,66,0.00,,,0.00,312.000000,,2013-04-14 13:43:00,
2013-04-14 09:52:00,52.0,41.0,30.42,South,171,1.0,3.0,66,0.00,,,0.00,312.000000,,2013-04-14 13:52:00,
2013-04-14 10:02:00,52.0,41.0,30.42,South,171,1.0,3.0,66,0.00,,,0.00,312.000000,,2013-04-14 14:02:00,
2013-04-14 10:32:00,59.0,38.0,30.41,ESE,115,3.0,8.0,46,0.00,,,0.00,495.000000,,2013-04-14 14:32:00,
2013-04-14 10:42:00,59.0,38.0,30.41,ESE,115,3.0,8.0,46,0.00,,,0.00,495.000000,,2013-04-14 14:42:00,
2013-04-14 10:53:00,59.0,38.0,30.41,ESE,115,3.0,8.0,46,0.00,,,0.00,495.000000,,2013-04-14 14:53:00,
2013-04-14 11:03:00,59.0,38.0,30.41,ESE,115,3.0,8.0,46,0.00,,,0.00,495.000000,,2013-04-14 15:03:00,
2013-04-14 11:34:00,67.0,40.0,30.38,WSW,247,3.0,10.0,37,0.00,,,0.00,745.000000,,2013-04-14 15:34:00,
2013-04-14 11:44:00,67.0,40.0,30.38,WSW,247,3.0,10.0,37,0.00,,,0.00,745.000000,,2013-04-14 15:44:00,
2013-04-14 11:53:00,67.0,40.0,30.38,WSW,247,3.0,10.0,37,0.00,,,0.00,745.000000,,2013-04-14 15:53:00,
2013-04-14 12:05:00,67.0,40.0,30.38,WSW,247,3.0,10.0,37,0.00,,,0.00,745.000000,,2013-04-14 16:05:00,
2013-04-14 12:33:00,69.0,35.0,30.38,SSE,151,10.0,25.0,29,0.00,,,0.00,781.000000,,2013-04-14 16:33:00,
2013-04-14 12:43:00,69.0,35.0,30.38,SSE,151,10.0,25.0,29,0.00,,,0.00,781.000000,,2013-04-14 16:43:00,
2013-04-14 12:53:00,69.0,35.0,30.38,SSE,151,10.0,25.0,29,0.00,,,0.00,781.000000,,2013-04-14 16:53:00,
2013-04-14 13:02:00,69.0,35.0,30.38,SSE,151,10.0,25.0,29,0.00,,,0.00,781.000000,,2013-04-14 17:02:00,
2013-04-14 13:33:00,69.0,35.0,30.36,SSE,151,11.0,26.0,28,0.00,,,0.00,684.000000,,2013-04-14 17:33:00,
2013-04-14 13:43:00,69.0,35.0,30.36,SSE,151,11.0,26.0,28,0.00,,,0.00,684.000000,,2013-04-14 17:43:00,
2013-04-14 13:53:00,69.0,35.0,30.36,SSE,151,11.0,26.0,28,0.00,,,0.00,684.000000,,2013-04-14 17:53:00,
2013-04-14 14:03:00,69.0,35.0,30.36,SSE,151,11.0,26.0,28,0.00,,,0.00,684.000000,,2013-04-14 18:03:00,
2013-04-14 14:33:00,69.0,34.0,30.34,SE,146,12.0,26.0,27,0.00,,,0.00,600.000000,,2013-04-14 18:33:00,
2013-04-14 14:43:00,69.0,34.0,30.34,SE,146,12.0,26.0,27,0.00,,,0.00,600.000000,,2013-04-14 18:43:00,
2013-04-14 14:54:00,69.0,34.0,30.34,SE,146,12.0,26.0,27,0.00,,,0.00,600.000000,,2013-04-14 18:54:00,
2013-04-14 15:04:00,69.0,34.0,30.34,SE,146,12.0,26.0,27,0.00,,,0.00,600.000000,,2013-04-14 19:04:00,
2013-04-14 15:33:00,67.0,33.0,30.35,SE,146,12.0,29.0,28,0.00,,,0.00,402.000000,,2013-04-14 19:33:00,
2013-04-14 15:43:00,67.0,33.0,30.35,SE,146,12.0,29.0,28,0.00,,,0.00,402.000000,,2013-04-14 19:43:00,
2013-04-14 15:53:00,67.0,33.0,30.35,SE,146,12.0,29.0,28,0.00,,,0.00,402.000000,,2013-04-14 19:53:00,
2013-04-14 16:03:00,67.0,33.0,30.35,SE,146,12.0,29.0,28,0.00,,,0.00,402.000000,,2013-04-14 20:03:00,
2013-04-14 16:33:00,66.0,36.0,30.35,SE,133,12.0,28.0,33,0.00,,,0.00,199.000000,,2013-04-14 20:33:00,
2013-04-14 16:43:00,66.0,36.0,30.35,SE,133,12.0,28.0,33,0.00,,,0.00,199.000000,,2013-04-14 20:43:00,
2013-04-14 16:53:00,66.0,36.0,30.35,SE,133,12.0,28.0,33,0.00,,,0.00,199.000000,,2013-04-14 20:53:00,
2013-04-14 17:02:00,66.0,36.0,30.35,SE,133,12.0,28.0,33,0.00,,,0.00,199.000000,,2013-04-14 21:02:00,
2013-04-14 17:33:00,64.0,37.0,30.35,SSE,155,7.0,21.0,36,0.00,,,0.00,132.000000,,2013-04-14 21:33:00,
2013-04-14 17:43:00,64.0,37.0,30.35,SSE,155,7.0,21.0,36,0.00,,,0.00,132.000000,,2013-04-14 21:43:00,
2013-04-14 17:53:00,64.0,37.0,30.35,SSE,155,7.0,21.0,36,0.00,,,0.00,132.000000,,2013-04-14 21:53:00,
2013-04-14 18:03:00,64.0,37.0,30.35,SSE,155,7.0,21.0,36,0.00,,,0.00,132.000000,,2013-04-14 22:03:00,
2013-04-14 18:33:00,63.0,36.0,30.32,SE,137,11.0,24.0,36,0.00,,,0.00,90.000000,,2013-04-14 22:33:00,
2013-04-14 18:44:00,63.0,36.0,30.32,SE,137,11.0,24.0,36,0.00,,,0.00,90.000000,,2013-04-14 22:44:00,
2013-04-14 18:53:00,63.0,36.0,30.32,SE,137,11.0,24.0,36,0.00,,,0.00,90.000000,,2013-04-14 22:53:00,
2013-04-14 19:02:00,63.0,36.0,30.32,SE,137,11.0,24.0,36,0.00,,,0.00,90.000000,,2013-04-14 23:02:00,
2013-04-14 19:33:00,62.0,37.0,30.30,SE,141,12.0,30.0,39,0.00,,,0.00,70.000000,,2013-04-14 23:33:00,
2013-04-14 19:43:00,62.0,37.0,30.30,SE,141,12.0,30.0,39,0.00,,,0.00,70.000000,,2013-04-14 23:43:00,
2013-04-14 19:53:00,62.0,37.0,30.30,SE,141,12.0,30.0,39,0.00,,,0.00,70.000000,,2013-04-14 23:53:00,
2013-04-14 20:02:00,62.0,37.0,30.30,SE,141,12.0,30.0,39,0.00,,,0.00,70.000000,,2013-04-15 00:02:00,
2013-04-14 20:33:00,60.0,37.0,30.29,SE,138,9.0,32.0,42,0.00,,,-99.99,13.000000,,2013-04-15 00:33:00,
2013-04-14 20:43:00,60.0,37.0,30.29,SE,138,9.0,32.0,42,0.00,,,-99.99,13.000000,,2013-04-15 00:43:00,
2013-04-14 20:53:00,60.0,37.0,30.29,SE,138,9.0,32.0,42,0.00,,,-99.99,13.000000,,2013-04-15 00:53:00,
2013-04-14 21:03:00,60.0,37.0,30.29,SE,138,9.0,32.0,42,0.00,,,-99.99,13.000000,,2013-04-15 01:03:00,
2013-04-14 21:33:00,60.0,45.0,30.31,SSE,161,9.0,23.0,58,0.00,,,0.00,0.000000,,2013-04-15 01:33:00,
2013-04-14 21:43:00,60.0,45.0,30.31,SSE,161,9.0,23.0,58,0.00,,,0.00,0.000000,,2013-04-15 01:43:00,
2013-04-14 21:52:00,60.0,45.0,30.31,SSE,161,9.0,23.0,58,0.00,,,0.00,0.000000,,2013-04-15 01:52:00,
2013-04-14 22:03:00,60.0,45.0,30.31,SSE,161,9.0,23.0,58,0.00,,,0.00,0.000000,,2013-04-15 02:03:00,
2013-04-14 22:32:00,55.0,47.0,30.33,SSE,149,10.0,28.0,73,0.00,,,0.00,0.000000,,2013-04-15 02:32:00,
2013-04-14 22:42:00,55.0,47.0,30.33,SSE,149,10.0,28.0,73,0.00,,,0.00,0.000000,,2013-04-15 02:42:00,
2013-04-14 22:53:00,55.0,47.0,30.33,SSE,149,10.0,28.0,73,0.00,,,0.00,0.000000,,2013-04-15 02:53:00,
2013-04-14 23:03:00,55.0,47.0,30.33,SSE,149,10.0,28.0,73,0.00,,,0.00,0.000000,,2013-04-15 03:03:00,
2013-04-14 23:33:00,54.0,47.0,30.33,SSE,154,6.0,22.0,76,0.00,,,0.00,0.000000,,2013-04-15 03:33:00,
2013-04-14 23:43:00,54.0,47.0,30.33,SSE,154,6.0,22.0,76,0.00,,,0.00,0.000000,,2013-04-15 03:43:00,
2013-04-14 23:55:00,54.0,47.0,30.33,SSE,154,6.0,22.0,76,0.00,,,0.00,0.000000,,2013-04-15 03:55:00,